Watonga, OK

9:49 AM CDT on March 23, 2017 (GMT -0500)
Watonga

Weather History for KJWG - February, 2013

Change the Weather History Date:

Monday, February 18, 2013

  Actual Average Record
Temperature  
Mean Temperature 44 °F -  
Max Temperature 55 °F 54 °F 82 °F (1986)
Min Temperature 32 °F 29 °F -2 °F (1978)
Degree Days  
Heating Degree Days 21    
Moisture  
Dew Point 35 °F    
Average Humidity 60    
Maximum Humidity 89    
Minimum Humidity 39    
Precipitation  
Precipitation 0.00 in - - ()
Sea Level Pressure  
Sea Level Pressure 29.83 in    
Wind  
Wind Speed 18 mph (WNW)    
Max Wind Speed 30 mph    
Max Gust Speed 40 mph    
Visibility 10 miles    
Events      
Averages and records for this station are not official NWS values.
T = Trace of Precipitation, MM = Missing Value Source: NWS Daily Summary

Daily Weather History Graph

Daily Weather History Graph

Search for Another Location

Airport or City:

Trip Planner

Search our weather history database for the weather conditions in past years. The results will help you decide how hot, cold, wet, or windy it might be!

Date:

Astronomy

Feb. 18, 2013 Rise Set
Actual Time 7:17 AM CST 6:18 PM CST
Civil Twilight 6:51 AM CST 6:44 PM CST
Nautical Twilight 6:21 AM CST 7:14 PM CST
Astronomical Twilight 5:51 AM CST 7:44 PM CST
Moon 12:11 PM CST (2/18) 1:52 AM CST (2/18)
Length of Visible Light 11h 53m
Length of Day
11h 01m
First Quarter, 58% of the Moon is Illuminated
Feb 18
First Quarter
Feb 25
Full
Mar 4
Last Quarter
Mar 11
New
Mar 19
First Quarter

Hourly Weather History & Observations

Time (CST) Temp. Windchill Dew Point Humidity Pressure Visibility Wind Dir Wind Speed Gust Speed Precip Events Conditions
12:15 AM 54.5 °F - 34.3 °F 47% 29.66 in 10.0 mi SSE 13.8 mph 20.7 mph N/A   Clear
12:35 AM 53.4 °F - 35.2 °F 50% 29.65 in 10.0 mi SSE 12.7 mph 18.4 mph N/A   Clear
12:55 AM 53.1 °F - 36.5 °F 53% 29.64 in 10.0 mi SSE 12.7 mph 16.1 mph N/A   Clear
1:15 AM 54.5 °F - 37.9 °F 54% 29.63 in 10.0 mi South 16.1 mph 25.3 mph N/A   Clear
1:35 AM 54.7 °F - 38.8 °F 55% 29.63 in 10.0 mi South 19.6 mph 26.5 mph N/A   Clear
1:55 AM 54.7 °F - 40.1 °F 58% 29.62 in 10.0 mi South 20.7 mph 25.3 mph N/A   Clear
2:15 AM 54.5 °F - 41.2 °F 61% 29.61 in 10.0 mi South 23.0 mph 32.2 mph N/A   Clear
2:35 AM 54.5 °F - 42.3 °F 63% 29.61 in 10.0 mi South 21.9 mph 33.4 mph N/A   Clear
2:55 AM 54.5 °F - 43.2 °F 66% 29.60 in 10.0 mi SSW 21.9 mph 32.2 mph N/A   Clear
3:15 AM 54.3 °F - 44.2 °F 69% 29.58 in 10.0 mi South 25.3 mph 34.5 mph N/A   Clear
3:35 AM 54.5 °F - 45.3 °F 71% 29.57 in 10.0 mi SSW 27.6 mph 35.7 mph N/A   Clear
3:55 AM 54.5 °F - 46.2 °F 74% 29.56 in 10.0 mi SSW 27.6 mph 36.8 mph N/A   Clear
4:15 AM 54.5 °F - 46.9 °F 76% 29.56 in 10.0 mi SSW 27.6 mph 39.1 mph N/A   Clear
4:35 AM 54.5 °F - 47.3 °F 77% 29.56 in 10.0 mi SSW 27.6 mph 40.3 mph N/A   Clear
4:55 AM 53.8 °F - 47.5 °F 79% 29.56 in 10.0 mi SSW 26.5 mph 35.7 mph N/A   Clear
5:15 AM 53.1 °F - 47.3 °F 81% 29.56 in 10.0 mi SSW 23.0 mph 35.7 mph N/A   Clear
5:35 AM 52.9 °F - 47.3 °F 81% 29.57 in 10.0 mi SSW 23.0 mph 29.9 mph N/A   Clear
5:55 AM 52.2 °F - 47.3 °F 83% 29.58 in 10.0 mi SSW 20.7 mph 25.3 mph N/A   Clear
6:15 AM 51.8 °F - 47.3 °F 85% 29.59 in 10.0 mi SSW 17.3 mph 23.0 mph N/A   Clear
6:35 AM 51.8 °F - 47.7 °F 86% 29.59 in 10.0 mi SSW 16.1 mph 23.0 mph N/A   Clear
6:55 AM 51.4 °F - 47.3 °F 86% 29.63 in 10.0 mi SW 12.7 mph 20.7 mph N/A   Clear
7:15 AM 50.2 °F - 46.9 °F 89% 29.63 in 10.0 mi West 15.0 mph 21.9 mph N/A   Clear
7:55 AM 46.4 °F 41.1 °F 39.0 °F 75% 29.67 in 10.0 mi WNW 11.5 mph - N/A   Scattered Clouds
8:15 AM 45.0 °F 38.5 °F 35.6 °F 70% 29.68 in 10.0 mi NW 13.8 mph 17.3 mph N/A   Clear
8:35 AM 45.7 °F 38.8 °F 35.1 °F 66% 29.69 in 10.0 mi NW 16.1 mph 23.0 mph N/A   Clear
9:15 AM 46.9 °F - 36.5 °F 67% 29.73 in 10.0 mi NW 18.4 mph 25.3 mph N/A   Clear
9:35 AM 47.7 °F - 36.3 °F 65% 29.75 in 10.0 mi NNW 21.9 mph 31.1 mph N/A   Clear
10:15 AM 49.6 °F - 36.3 °F 60% 29.77 in 10.0 mi NNW 26.5 mph 34.5 mph N/A   Clear
10:35 AM 50.0 °F - 35.8 °F 58% 29.78 in 10.0 mi NNW 23.0 mph 34.5 mph N/A   Clear
10:55 AM 50.4 °F - 35.4 °F 57% 29.79 in 10.0 mi NNW 29.9 mph 38.0 mph N/A   Clear
11:15 AM 51.4 °F - 35.2 °F 54% 29.82 in 10.0 mi NNW 26.5 mph 36.8 mph N/A   Clear
11:35 AM 51.3 °F - 34.2 °F 52% 29.83 in 10.0 mi NNW 25.3 mph 35.7 mph N/A   Clear
11:55 AM 51.8 °F - 34.3 °F 51% 29.84 in 10.0 mi NNW 24.2 mph 35.7 mph N/A   Clear
12:15 PM 52.3 °F - 34.0 °F 50% 29.85 in 10.0 mi NNW 23.0 mph 34.5 mph N/A   Clear
12:35 PM 52.7 °F - 34.0 °F 49% 29.86 in 10.0 mi NNW 24.2 mph 35.7 mph N/A   Clear
12:55 PM 53.4 °F - 34.2 °F 48% 29.87 in 10.0 mi NNW 19.6 mph 32.2 mph N/A   Clear
1:15 PM 54.0 °F - 33.8 °F 46% 29.88 in 10.0 mi NNW 20.7 mph 33.4 mph N/A   Clear
1:35 PM 54.9 °F - 33.3 °F 44% 29.88 in 10.0 mi NNW 20.7 mph 33.4 mph N/A   Clear
1:55 PM 55.2 °F - 33.1 °F 43% 29.88 in 10.0 mi North 21.9 mph 31.1 mph N/A   Clear
2:15 PM 55.6 °F - 33.3 °F 43% 29.88 in 10.0 mi NW 24.2 mph 29.9 mph N/A   Clear
2:35 PM 55.2 °F - 32.7 °F 43% 29.90 in 10.0 mi NNW 18.4 mph 29.9 mph N/A   Clear
2:55 PM 55.8 °F - 32.9 °F 42% 29.90 in 10.0 mi NW 20.7 mph 31.1 mph N/A   Clear
3:15 PM 55.6 °F - 32.0 °F 41% 29.91 in 10.0 mi NW 19.6 mph 28.8 mph N/A   Clear
3:35 PM 55.4 °F - 31.3 °F 40% 29.92 in 10.0 mi NNW 18.4 mph 29.9 mph N/A   Clear
3:55 PM 55.4 °F - 31.1 °F 40% 29.93 in 10.0 mi NNW 20.7 mph 28.8 mph N/A   Clear
4:15 PM 55.0 °F - 30.6 °F 39% 29.94 in 10.0 mi NNW 15.0 mph 28.8 mph N/A   Clear
4:35 PM 54.9 °F - 30.2 °F 39% 29.94 in 10.0 mi NNW 18.4 mph 29.9 mph N/A   Clear
4:55 PM 54.5 °F - 30.0 °F 39% 29.95 in 10.0 mi NW 17.3 mph 27.6 mph N/A   Clear
5:15 PM 54.1 °F - 29.7 °F 39% 29.96 in 10.0 mi NW 21.9 mph 25.3 mph N/A   Clear
5:35 PM 53.6 °F - 29.1 °F 39% 29.97 in 10.0 mi NW 15.0 mph 21.9 mph N/A   Clear
5:55 PM 52.7 °F - 29.3 °F 41% 29.98 in 10.0 mi NNW 13.8 mph 26.5 mph N/A   Clear
6:15 PM 51.8 °F - 28.4 °F 41% 29.99 in 10.0 mi NNW 11.5 mph 25.3 mph N/A   Clear
6:35 PM 50.2 °F - 28.0 °F 42% 30.01 in 10.0 mi NW 12.7 mph 18.4 mph N/A   Clear
7:35 PM 45.7 °F 42.7 °F 28.2 °F 51% 30.06 in 10.0 mi NNW 5.8 mph - N/A   Clear
7:55 PM 45.0 °F 42.6 °F 28.2 °F 52% 30.07 in 10.0 mi NW 4.6 mph - N/A   Clear
8:15 PM 43.5 °F 40.1 °F 28.4 °F 55% 30.08 in 10.0 mi NNW 5.8 mph - N/A   Clear
8:35 PM 40.3 °F 37.1 °F 28.9 °F 64% 30.09 in 10.0 mi NW 4.6 mph - N/A   Clear
8:55 PM 40.5 °F 37.3 °F 28.8 °F 63% 30.09 in 10.0 mi NW 4.6 mph - N/A   Clear
9:15 PM 39.2 °F 34.2 °F 28.6 °F 66% 30.10 in 10.0 mi NNW 6.9 mph - N/A   Clear
9:35 PM 43.2 °F 38.4 °F 27.5 °F 54% 30.11 in 10.0 mi NNW 8.1 mph - N/A   Clear
9:55 PM 42.3 °F 36.3 °F 27.7 °F 56% 30.10 in 10.0 mi North 10.4 mph - N/A   Clear
10:15 PM 39.4 °F 35.2 °F 27.5 °F 62% 30.12 in 10.0 mi North 5.8 mph - N/A   Clear
10:35 PM 36.1 °F - 27.9 °F 72% 30.13 in 10.0 mi Calm Calm - N/A   Clear
10:55 PM 34.2 °F - 28.2 °F 79% 30.14 in 10.0 mi Calm Calm - N/A   Clear
11:15 PM 33.8 °F 29.6 °F 28.8 °F 82% 30.15 in 10.0 mi SSW 4.6 mph - N/A   Clear
11:35 PM 33.6 °F 30.6 °F 28.6 °F 82% 30.16 in 10.0 mi SW 3.5 mph - N/A   Clear
11:55 PM 32.2 °F - 27.3 °F 82% 30.16 in 10.0 mi Calm Calm - N/A   Clear